Regional Weather Roundup
Issued by NWS

Home | Current Version | Previous Version | Text Only | Print | Product List | Glossary On
Versions: 1 2 3 4 5 6 7 8 9 10 11 12 13 14 15 16 17 18 19 20 21 22 23 24 25 26 27 28 29 30 31 32 33 34 35 36 37 38 39 40 41 42 43 44 45 46 47 48 49 50
425
ASUS43 KDMX 270501
RWRIA

WEATHER ROUNDUP FOR IOWA
NATIONAL WEATHER SERVICE DES MOINES IA
1100 PM CST SUN FEB 26 2017

NOTE: "FAIR" INDICATES FEW OR NO CLOUDS BELOW 12,000 FEET WITH NO
SIGNIFICANT WEATHER AND/OR OBSTRUCTIONS TO VISIBILITY.

* - THESE STATIONS ARE NOT NWS STATIONS...THUS NOT UNDER NWS
QUALITY CONTROL.  THEY ALSO DO NOT REPORT WEATHER SUCH
AS PRECIPITATION OR FOG.

IAZ001>003-012>014-020>022-031>034-043>046-270600-
   NORTHWEST IOWA

CITY           SKY/WX    TMP DP  RH WIND       PRES   REMARKS
CARROLL *      CLEAR     23  23 100 SW3       29.99S
CHEROKEE *     CLEAR     17  17  98 CALM      29.98S
DENISON *      CLEAR     21  21 100 CALM      29.97S
LE MARS *      CLEAR     23  21  93 S3        29.97F
SHELDON *      CLEAR     27  27 100 S10       29.93S WCI  17
SIOUX CITY     CLEAR     19  16  88 E7        29.98S WCI  10
SPENCER        CLEAR     20  17  88 SW8       29.96S WCI  10
STORM LAKE *   CLEAR     25  21  86 SW7       29.97S WCI  17
$$

IAZ055>058-069>071-079>083-090>094-270600-
   SOUTHWEST IOWA

CITY           SKY/WX    TMP DP  RH WIND       PRES   REMARKS
ATLANTIC *     CLEAR     25  25 100 CALM      30.01S
AUDUBON *      CLEAR     21  19  93 CALM      30.00S
CLARINDA *     CLOUDY    25  25 100 CALM      30.05R
COUNCIL BLFS * CLEAR     30  25  80 SE7       30.00S WCI  23
CRESTON *      CLOUDY    28  23  80 E6        30.02S WCI  22
HARLAN  *      CLEAR     23  23 100 CALM      30.04R
LAMONI         PTCLDY    37  20  50 CALM      30.01F
RED OAK *      CLEAR     25  23  93 MISG      30.02S
SHENANDOAH *   CLEAR     27  23  86 CALM      30.03S
$$

IAZ047>049-059>061-072>074-084-270600-
   CENTRAL IOWA

CITY           SKY/WX    TMP DP  RH WIND       PRES   REMARKS
AMES           CLEAR     26  25  96 CALM      30.02S
ANKENY *       MOCLDY    25  23  93 CALM      30.04S
BOONE *        CLEAR     27  27 100 S7        30.00S WCI  19
CHARITON *     CLOUDY    34  23  64 E6        30.02S WCI  29
DES MOINES     MOCLDY    31  21  66 SE8       30.03S WCI  23
GRINNELL*      PTCLDY    28  23  83 SE5       30.05R WCI  22
KNOXVILLE *    CLOUDY    34  21  60 CALM      30.02S
MARSHALLTOWN   CLEAR     26  24  92 S3        30.02R
NEWTON *       CLOUDY    27  21  80 SE6       30.03R WCI  20
PELLA *        PTCLDY    32  23  71 CALM      30.05F
PERRY *          N/A     28  26  95 S6        30.01S WCI  21
$$

IAZ004>006-015-016-023>025-035-036-270600-
   NORTH CENTRAL IOWA

CITY           SKY/WX    TMP DP  RH WIND       PRES   REMARKS
ALGONA *       CLEAR     18  18 100 S10       29.97S WCI   6
CLARION *      CLEAR     18  18 100 S7        30.00S WCI   8
ESTHERVILLE    CLEAR     22  19  89 S12       29.95S WCI  10
FORT DODGE *   CLEAR     21  18  86 CALM      30.00S
MASON CITY     CLEAR     23  18  81 SW6       30.00S WCI  16
FOREST CITY *  FOG       10   9  92 CALM      29.98S VSB 1
WEBSTER CITY * CLEAR     21  19  93 CALM      29.98S
IOWA FALLS *     N/A     25  23  93 CALM      30.01S
$$

IAZ007>011-017>019-026>030-037>042-050>054-066-270600-
   NORTHEAST IOWA

CITY           SKY/WX    TMP DP  RH WIND       PRES   REMARKS
CEDAR RAPIDS   MOCLDY    27  25  92 CALM      30.04R
CHARLES CITY * CLEAR     21  21 100 SE5       30.01S WCI  15
CLINTON *      CLOUDY    32  26  78 W5        30.06R WCI  27
DECORAH *      CLEAR     25  23  93 SW3       30.00S
DUBUQUE        CLEAR     29  24  82 SW3       30.03R
MONTICELLO *   MOCLDY    27  25  93 CALM      30.04R
OELWEIN *      CLEAR     27  27 100 CALM      30.02R
WATERLOO       CLEAR     23  20  88 CALM      30.02S
$$

IAZ064-065-067-068-078-270600-
   EAST CENTRAL IOWA

CITY           SKY/WX    TMP DP  RH WIND       PRES   REMARKS
DAVENPORT      MOCLDY    30  25  81 CALM      30.06R
IOWA CITY      CLOUDY    32  25  75 CALM      30.07R
MUSCATINE *    CLOUDY    32  27  80 CALM      30.07R
QUAD CITIES    MOCLDY    33  29  85 CALM      30.06R
$$

IAZ062-063-075>077-085>089-095>099-270600-
   SOUTHEAST IOWA

CITY           SKY/WX    TMP DP  RH WIND       PRES   REMARKS
BURLINGTON     MOCLDY    38  26  62 S7        30.07R WCI  33
FAIRFIELD *    MOCLDY    34  30  86 SE5       30.05R WCI  30
KEOKUK *       PTCLDY    36  28  75 S7        30.07S WCI  30
CENTERVILLE *    N/A     36  28  75 CALM      30.05S
OTTUMWA        PTCLDY    31  24  75 CALM      30.04S
WASHINGTON *   MOCLDY    34  25  69 CALM      30.06S
$$

ABBREVIATIONS USED IN REMARKS
   TC - TEMPERATURES IN CELSIUS
  WCI - WIND CHILL INDEX
   HX - HEAT INDEX
  VSB - VISIBILITY
$$





USA.gov is the U.S. government's official web portal to all federal, state and local government web resources and services.